Location: Newark
(42.8481°N, 0.4872°E)
Time: 09:12:39
(UTC+00:00)

Vanguard 3 - Pass Details

Date: 04 November 2020
Orbit: 508 x 3262 km, 33.3° (Epoch: 27 November)

Event Time Altitude Azimuth Distance (km) Brightness Sun altitude
Rises 09:15:59 0° 279° (W) 6,948 11.5 22.7°
Reaches altitude 10° 09:20:55 10° 273° (W) 6,096 11.3 23.3°
Maximum altitude 09:38:01 39° 214° (SW) 4,146 11.3 25.1°
Drops below altitude 10° 09:52:44 10° 153° (SSE) 5,244 13.1 26.4°
Sets 09:56:38 0° 146° (SE) 5,923 12.9 26.8°
